User: anonymous   Login
Location: Unspecified
(0.0000°N, 0.0000°E)
Time: 05:16:23
(UTC+00:00)
Language:

RBLE - Orbit

View from above orbital plane
View from above orbital plane
View from above satellite
View from above satellite

Ground track
Ground track

The orbit data is extracted from the following two-line orbital elements,

1 43021U 98067NJ  19083.29910190  .00008020  00000-0  97491-4 0  9996
2 43021  51.6396  48.1081 0002928 120.6451 239.4832 15.61579335 76182
Epoch (UTC): 24 March 2019 07:10:42
Eccentricity: 0.0002928
inclination: 51.6396°
perigee height: 381 km
apogee height: 385 km
right ascension of ascending node: 48.1081°
argument of perigee: 120.6451°
revolutions per day: 15.61579335
mean anomaly at epoch: 239.4832°
orbit number at epoch: 7618

The dashed part of the orbit path shows where the satellite is in the earth's shadow,  

DLR